Regional Weather Roundup
Issued by NWS

Home | Current Version | Previous Version | Graphics & Text | Print | Product List | Glossary On
Versions: 1 2 3 4 5 6 7 8 9 10 11 12 13 14 15 16 17 18 19 20 21 22 23 24 25 26 27 28 29 30 31 32 33 34 35 36 37 38 39 40 41 42 43 44 45 46 47 48 49 50
000
ASUS43 KLOT 230709
RWRIL

ILLINOIS REGIONAL WEATHER ROUNDUP
NATIONAL WEATHER SERVICE CHICAGO/ROMEOVILLE IL
200 AM CDT FRI JUN 23 2017

NOTE: "FAIR" INDICATES FEW OR NO CLOUDS BELOW 12,000 FEET WITH NO
SIGNIFICANT WEATHER AND/OR OBSTRUCTIONS TO VISIBILITY.

* THESE STATIONS ARE NOT UNDER NWS QUALITY CONTROL. THEY ALSO MAY NOT
  REPORT WEATHER SUCH AS PRECIPITATION OR FOG.

ILZ001-002-007-009-015-016-024-230800-
NORTHWEST ILLINOIS

CITY           SKY/WX    TMP DP  RH WIND       PRES   REMARKS
MOLINE         CLEAR     77  71  82 S12       29.62F
STERLING*      MOCLDY    74  72  93 VRB3      29.66S
SAVANNA*       CLOUDY    76  72  88 SW8       29.65F
$$

ILZ003-004-008-010-011-017-018-230800-
NORTH CENTRAL ILLINOIS

CITY           SKY/WX    TMP DP  RH WIND       PRES   REMARKS
ROCKFORD       CLOUDY    77  72  84 SW10      29.66F
FREEPORT*      CLOUDY    73  71  91 S14       29.65F
ROCHELLE*      CLOUDY    74  72  94 SW12      29.67S
DE KALB*       CLOUDY    74  72  93 SW14      29.68F
PERU*          CLOUDY    74  71  91 SW12      29.67F
$$

ILZ005-006-012>014-019>023-230800-
NORTHEAST ILLINOIS

CITY           SKY/WX    TMP DP  RH WIND       PRES   REMARKS
CHICAGO-OHARE  CLOUDY    76  70  82 SW9       29.66F
CHICAGO-MIDWAY CLOUDY    76  71  85 S13       29.65F
AURORA         CLOUDY    75  72  90 S12G21    29.68F
LANSING*       CLOUDY    73  69  87 SW13G18   29.68F
JOLIET*        CLOUDY    76  73  93 S7        29.68F
WAUKEGAN       MOCLDY    74  72  93 SW13      29.63F
DUPAGE AIRPORT CLOUDY    75  72  90 SW16      29.66F
WHEELING       CLOUDY    76  72  87 SW8       29.67F
MORRIS*        CLOUDY    75  72  89 SW12      29.67F
ROMEOVILLE*    CLOUDY    74  69  85 SW16G22   29.67F
NORTHERLY ISL    N/A     75  69  81 S15         N/A
$$

LMZ740>746-230800-
SOUTHERN LAKE MICHIGAN

STATION/POSITION SKY/WX   TEMP    WIND        PRES    VSBY  WAVE
                          AIR SEA DIR/SP/G                  HT/PER
                          (F)     (DEG/KT/KT) (MB)    (MI)  (FT/S)
SOUTHERN BUOY              66 61  210/ 19/ 23 1003.3          3/ 4
WILMETTE HARBOR            71 63  210/ 10/ 14   N/A           2/ 3
HARRISON CRIB              75     210/ 23/ 25   N/A
BURNHAM HARBOR             75                   N/A
CALUMET HARBOR                    200/ 11/ 15 1004.3F
BURNS HARBOR               73     190/ 17/ 23 1005.4F
MICHIGAN CITY              73     180/ 15/ 20   N/A
MICHIGAN CITY 6N           72 68  210/ 16/ 17   N/A           2/ 3
ST. JOSEPH                 72 69  210/ 10/ 16 1004.6          2/ 3
$$

ILZ025>027-034>036-040-047-049-050-058-095>099-230800-
WEST-CENTRAL ILLINOIS

CITY           SKY/WX    TMP DP  RH WIND       PRES   REMARKS
QUINCY         CLOUDY    76  72  87 S8        29.70F
GALESBURG*     PTCLDY    74  72  91 S10G17    29.67F
MACOMB*        CLOUDY    74  73  95 S8        29.71F
JACKSONVILLE*  CLOUDY    75  73  93 S7        29.71F
PITTSFIELD*    CLOUDY    76  74  93 S6        29.72F
$$

ILZ028>032-037-038-041>044-048-051>054-059>061-230800-
CENTRAL ILLINOIS

CITY           SKY/WX    TMP DP  RH WIND       PRES   REMARKS
PONTIAC        CLOUDY    75  74  98 S14       29.69F
BLOOMINGTON    CLOUDY    74  72  93 SW10      29.72F
DECATUR        CLOUDY    74  72  93 SW8       29.73F
PEORIA         MOCLDY    75  74  96 S10       29.68F
LACON*         CLOUDY    75  73  94 S10       29.67F
LINCOLN*       CLOUDY    76  75  95 S6        29.71F
SPRINGFIELD    CLOUDY    77  75  93 S7        29.72F
TAYLORVILLE    CLOUDY    73  73  99 S9        29.74S
$$

ILZ033-039-045-046-055>057-062-063-230800-
EAST-CENTRAL ILLINOIS

CITY           SKY/WX    TMP DP  RH WIND       PRES   REMARKS
CHAMPAIGN      CLOUDY    74  71  91 SW10      29.73F
RANTOUL*       CLOUDY    75  74  95 SW6       29.73F
MATTOON        CLOUDY    75  74  96 S7        29.73F
PARIS*         CLOUDY    73  73  98 S7        29.75F
$$

ILZ079-100>102-230800-
SOUTHWEST ILLINOIS

CITY           SKY/WX    TMP DP  RH WIND       PRES   REMARKS
ALTON          CLOUDY    75  73  95 S5        29.74R
BELLEVILLE     PTCLDY    74  73  96 S3        29.74S
CAHOKIA*       MOCLDY    77  73  87 S3        29.73R
SPARTA*        CLOUDY    76  73  89 S5        29.75S
$$

ILZ064>066-069>071-074>076-080>082-084>086-088>090-092>094-230800-
SOUTH-CENTRAL ILLINOIS

CITY           SKY/WX    TMP DP  RH WIND       PRES   REMARKS
CARBONDALE     LGT RAIN  76  76 100 S12       29.74F
CAIRO*         CLOUDY    76  74  94 S13       29.74F
EFFINGHAM*     CLOUDY    75  75  99 SE7       29.76S
MARION         LGT RAIN  77  77 100 S12       29.76S
MT. VERNON     PTCLDY    76  74  93 S5        29.75S
CENTRALIA*     CLOUDY    76  75  97 CALM      29.75R
SALEM*         CLOUDY    77  74  91 S5        29.75S
METROPOLIS*    CLOUDY    78  74  89 S8        29.76F
$$

ILZ067-068-072-073-078-083-087-091-230800-
SOUTHEAST ILLINOIS

CITY           SKY/WX    TMP DP  RH WIND       PRES   REMARKS
LAWRENCEVILLE  CLOUDY    74  73  97 S12       29.75F
FLORA*         CLOUDY   N/A N/A N/A S6        29.76R
FAIRFIELD*     MOCLDY    76  75  98 S6        29.74F
HARRISBURG*    RAIN      77  74  92 S3        29.76S
ROBINSON*      CLOUDY    74  73  96 S9        29.76F
CARMI*         CLOUDY    76  74  96 S6        29.76F
$$

ABBREVIATIONS USED IN REMARKS
   TC - TEMPERATURE IN CELSIUS
  WCI - WIND CHILL INDEX
   HX - HEAT INDEX
  VSB - VISIBILITY
$$




USA.gov is the U.S. government's official web portal to all federal, state and local government web resources and services.